{"data":{"norad_id":59458,"intl_designator":"2024-068D","name":"STARLINK-31625","alt_names":[],"object_type":"PAYLOAD","status":"ACTIVE","operator":null,"country":"US","launch_date":"2024-04-10","launch_site_code":"AFETR","launch_vehicle":null,"mission":null,"orbit_class":"UNKNOWN","rcs_meters":null,"size_class":null,"mass_kg":null,"dimensions":null,"purposes":["comms"],"wikipedia_slug":null,"has_3d_model":false,"image_url":null,"decayed_at":null,"tle_current":{"epoch":"2026-09-21T14:22:57.504288Z","epoch_age_seconds":70371,"freshness":"FRESH","line1":"1 59458U 24068D   26264.59927667  .00000720  00000+0  35666-4 0  9990","line2":"2 59458  43.0044   8.2028 0001292 270.4280  89.6424 15.27585417138487","mean_motion":15.27585417,"eccentricity":0.0001292,"inclination_deg":43.0044,"raan_deg":8.2028,"arg_perigee_deg":270.428,"mean_anomaly_deg":89.6424,"bstar":3.5666e-5,"rev_number":13848,"period_min":94.266414432523,"perigee_km":482.1464124929,"apogee_km":483.91933878876,"semimajor_km":6861.1698756408,"source":"CELESTRAK","updated_at":"2026-09-22T09:00:48.943828Z"}}}